Wind_Speed
43 45 45 44 42 41 41 41 41 41 41 42 43 43 43 42 41 40 38 37 37 37 37 36 36 35 32 31 32 34 36 37 39 40 42 43 44 45 46 46 47 48 49 49 49 49 48 48 49 48 48 48 46 44 44 44 43 42 43 43 43 42 42 42 42 43 42 42 42 41 40 39 38 37 35 34 33 32 30 29 28 27 27 27 27 28
45 46 46 43 42 42 43 43 43 43 43 43 44 44 44 44 42 41 39 37 36 36 36 35 35 33 31 29 29 32 33 33 34 35 36 37 38 40 42 42 43 43 44 45 45 45 45 45 44 44 45 44 41 40 41 39 38 38 39 40 40 40 40 40 40 40 40 40 39 39 38 37 36 35 34 33 32 30 29 28 28 27 27 28 28 29
46 47 45 43 43 43 44 45 45 45 45 45 45 46 46 46 44 43 41 39 37 37 37 37 36 34 32 30 30 31 32 31 31 32 32 33 34 36 38 38 39 40 42 43 43 43 42 42 42 42 43 41 38 38 38 36 35 36 37 38 38 38 38 38 38 38 37 37 37 37 37 37 36 35 34 33 31 30 28 28 28 27 27 28 29 30
46 46 44 44 44 45 45 45 46 46 47 47 47 47 48 47 46 45 43 41 40 39 39 39 38 37 35 35 34 34 33 32 31 30 30 31 32 33 34 35 36 38 40 41 41 40 39 40 40 40 40 38 37 36 35 34 34 34 35 36 36 37 37 37 37 36 35 35 36 36 36 36 36 35 34 33 31 30 29 28 28 28 28 29 30 31
44 43 43 44 45 45 46 46 47 48 48 48 48 48 49 48 47 47 46 44 43 41 41 41 41 39 39 39 39 38 36 35 33 32 32 31 32 32 32 32 34 36 37 38 37 36 36 37 38 38 38 36 33 33 33 34 33 33 34 35 35 36 37 37 37 36 35 35 35 36 36 36 36 36 35 34 32 30 29 29 29 29 29 30 31 31
41 40 40 42 43 44 45 46 48 48 49 49 49 49 49 49 48 47 47 46 45 44 43 43 42 42 42 43 43 42 41 39 37 36 35 34 32 31 30 30 32 35 37 37 37 36 36 36 37 39 39 35 31 31 33 34 33 33 34 34 35 36 37 37 37 36 35 35 35 35 35 36 36 36 36 35 34 32 31 30 30 30 30 31 31 32
39 37 38 39 40 41 43 45 46 47 48 48 49 49 49 49 48 48 47 47 47 45 44 44 43 44 45 46 47 46 45 43 41 40 40 38 34 31 30 31 34 37 39 40 39 38 38 39 40 42 41 37 33 33 34 34 34 34 34 35 35 36 37 38 38 37 36 35 35 35 35 35 36 36 36 35 34 33 32 32 31 31 31 32 32 33
39 37 37 38 38 39 41 43 43 43 45 46 48 48 49 49 49 48 48 47 47 47 46 45 45 44 44 47 49 48 47 47 46 45 43 41 38 35 33 34 37 40 42 42 41 41 40 41 43 43 43 40 37 36 36 35 34 35 35 36 36 36 37 37 37 36 36 35 35 36 36 36 36 36 36 36 35 34 34 34 33 33 32 33 33 33
40 39 38 38 39 41 41 42 41 41 42 44 45 46 47 47 47 48 48 48 48 47 47 47 47 45 44 46 49 48 48 50 50 48 46 44 41 39 37 38 40 42 45 46 44 43 43 43 44 44 44 43 41 39 38 36 36 36 36 37 37 37 37 38 37 36 36 36 36 37 37 36 36 37 37 37 36 36 35 35 34 34 34 34 34 34
42 42 40 40 42 43 42 42 42 42 43 43 44 44 45 45 45 46 47 48 47 46 47 48 48 47 46 46 48 49 50 51 51 49 48 47 44 42 41 42 43 44 48 51 49 46 47 47 47 46 46 45 43 42 40 39 38 38 38 38 38 38 38 38 38 37 37 36 36 37 37 37 37 37 38 38 38 37 37 36 36 35 35 35 35 35
44 44 44 44 45 45 45 45 45 45 45 45 45 45 46 45 45 45 45 46 45 45 47 48 48 47 46 46 48 51 52 52 51 50 50 49 47 45 44 45 46 47 51 55 53 50 50 51 51 50 48 47 46 44 43 42 42 42 42 41 41 40 39 39 39 38 37 37 37 37 37 38 38 38 38 38 39 39 38 38 38 37 36 36 36 36
46 46 46 47 48 48 47 48 48 49 48 48 48 48 48 48 47 46 47 47 46 46 48 48 47 46 46 46 48 52 54 53 52 51 51 50 49 48 47 47 48 51 54 56 55 53 54 54 54 53 51 50 49 48 46 45 46 46 45 44 43 43 42 42 41 41 39 38 38 38 38 38 39 39 39 39 39 40 40 39 39 39 38 38 38 37
48 48 49 50 51 51 51 52 52 52 52 51 51 51 51 51 50 50 50 50 49 49 49 48 47 46 46 45 47 51 54 54 52 51 52 52 51 50 50 49 50 52 55 56 54 54 55 56 56 55 54 53 52 51 50 49 49 49 49 47 46 46 45 44 44 44 43 41 40 40 40 39 39 40 40 40 41 41 41 41 41 40 40 40 40 40
50 51 51 52 53 53 54 55 55 55 54 54 53 53 54 54 53 53 53 52 52 52 52 50 49 48 47 46 48 50 53 54 53 52 53 53 52 52 52 52 52 53 56 56 54 54 55 56 56 56 55 54 54 53 52 52 52 52 53 51 50 49 47 47 47 47 46 45 44 43 43 42 41 41 41 41 42 42 42 42 42 42 42 42 42 42
51 53 53 54 54 55 56 57 57 57 56 56 55 54 55 56 56 55 55 55 55 55 54 53 52 51 50 50 51 52 54 55 54 53 53 53 53 53 53 54 54 55 56 56 56 55 56 56 57 57 56 55 54 53 54 55 55 55 55 54 53 52 50 49 49 49 49 48 48 47 46 45 44 43 42 42 43 43 44 44 44 43 43 44 44 44
52 54 55 55 56 57 58 59 59 59 58 57 56 56 56 57 58 57 57 57 58 57 57 56 55 54 53 54 54 54 56 57 57 56 55 55 54 54 54 55 56 57 57 57 57 57 57 58 59 58 57 55 54 55 56 57 57 56 56 56 56 55 54 53 52 52 52 51 51 50 49 48 47 46 45 44 44 44 44 45 45 46 45 45 46 46
53 55 57 57 58 59 60 61 60 60 60 59 58 59 58 59 60 60 60 60 60 59 58 57 57 57 55 56 57 57 59 61 60 59 59 59 58 57 57 57 58 59 59 58 59 59 59 60 60 59 58 57 56 57 59 59 59 58 57 58 58 57 57 56 55 55 54 54 53 52 52 50 49 48 47 47 47 46 46 47 47 47 47 48 48 48
54 56 57 58 59 59 60 62 62 61 61 61 61 61 60 60 61 62 61 61 61 61 60 59 59 59 58 58 59 60 62 63 63 63 62 62 61 60 60 59 61 62 62 61 62 62 62 62 62 61 60 58 58 59 60 60 61 60 59 59 59 59 59 58 57 57 57 56 55 55 54 53 51 51 50 49 50 50 49 49 49 49 49 50 50 50
54 55 57 58 59 59 60 60 61 61 60 61 62 62 61 62 63 62 62 62 62 62 61 61 61 61 60 61 62 62 64 65 65 65 64 63 63 63 62 62 62 63 64 64 64 65 65 65 64 64 63 62 62 62 63 63 64 63 62 61 61 60 60 59 59 59 59 58 58 57 56 55 55 54 53 53 52 53 52 52 52 52 52 52 52 52
53 53 54 56 57 58 58 58 59 59 58 58 59 60 60 61 62 62 62 62 62 62 61 61 61 62 63 64 64 64 65 66 66 66 66 65 65 65 65 64 64 64 65 66 66 66 67 67 67 66 66 66 65 65 66 67 67 67 65 65 64 62 61 61 61 61 60 60 59 59 58 58 58 57 57 57 56 56 56 55 55 55 55 55 55 55
51 51 51 53 54 55 56 56 57 57 56 55 55 56 57 58 59 59 59 59 59 59 58 58 58 59 61 63 63 63 63 64 65 65 65 65 66 66 66 66 65 65 65 66 66 67 67 68 68 68 68 68 68 68 70 71 71 72 71 69 68 66 65 64 64 63 62 61 60 60 60 60 60 60 60 60 60 60 59 59 58 58 58 57 57 57
49 49 49 50 52 53 54 54 55 56 56 54 53 53 54 55 56 56 56 55 55 55 54 54 53 54 56 58 60 60 60 60 61 62 62 63 64 65 65 64 64 65 65 65 66 66 67 68 69 69 69 69 69 70 71 72 74 75 74 73 71 69 69 68 67 67 65 62 61 62 62 62 62 63 63 63 63 63 62 62 61 60 60 60 60 60
48 48 47 48 50 51 52 52 54 55 56 56 55 53 53 53 54 55 54 52 53 52 51 52 51 51 53 56 57 58 58 58 59 60 61 62 63 63 63 63 63 64 65 66 66 66 66 67 68 69 69 69 69 69 70 71 73 75 75 75 73 72 72 71 70 70 68 66 65 66 65 65 65 65 64 64 65 65 64 63 63 62 63 63 63 63
48 48 47 47 48 49 51 52 53 54 55 56 57 56 55 54 54 55 54 52 52 51 51 52 50 50 54 57 56 56 58 59 60 60 61 62 63 64 64 63 63 63 64 65 65 65 65 65 66 67 67 67 67 67 68 69 71 73 74 74 74 74 73 72 71 71 70 69 71 72 70 69 68 67 67 67 67 66 66 65 64 64 64 64 65 65
49 49 47 48 48 49 50 52 53 55 56 56 57 57 58 57 57 56 56 55 54 52 53 54 51 51 56 57 57 57 59 60 61 61 62 63 64 64 65 64 64 64 63 63 63 63 63 64 64 65 65 66 67 67 67 68 68 70 71 72 72 73 73 72 72 72 71 71 73 74 74 73 73 71 70 70 69 68 67 66 66 65 65 66 66 67
50 50 49 49 49 49 50 53 54 55 56 56 57 58 59 60 60 60 59 58 56 55 55 55 54 55 57 58 58 59 61 61 62 62 62 64 65 65 65 65 65 65 64 63 63 63 63 63 63 64 64 65 66 67 68 69 69 69 70 71 71 71 72 72 71 71 71 72 73 74 75 76 76 75 74 74 73 71 70 68 67 66 66 67 68 68
51 51 51 50 49 49 51 53 54 55 56 57 58 59 60 61 62 63 62 61 60 59 56 55 58 60 59 60 61 62 62 62 62 62 63 65 66 66 66 66 66 66 65 65 65 64 64 64 64 64 64 65 66 67 69 69 70 70 70 70 71 71 71 71 71 70 71 72 73 73 75 76 77 78 77 77 76 74 73 71 70 69 69 69 70 70
52 51 51 51 51 51 52 53 55 56 57 58 59 59 61 63 64 64 64 64 65 64 59 59 64 63 61 63 65 64 63 64 63 63 65 66 67 68 68 68 67 67 67 67 67 67 67 66 66 66 65 65 66 67 68 69 69 69 70 70 71 71 71 71 71 70 71 72 72 73 74 76 77 77 78 78 78 76 74 70 69 71 73 74 74 74
53 52 53 53 53 53 55 56 56 57 58 59 60 61 63 65 66 66 66 67 69 67 63 64 68 66 64 68 69 66 66 66 65 65 66 67 68 68 69 69 69 69 69 70 70 70 69 69 68 67 67 67 66 67 67 68 68 69 69 69 70 71 71 71 71 71 71 72 72 73 74 76 76 76 76 77 77 76 74 71 68 69 72 74 75 76
57 56 56 56 56 57 58 58 59 59 59 59 61 62 64 66 67 68 69 70 71 70 67 68 70 67 67 72 72 70 69 69 68 68 69 69 68 69 70 70 70 70 70 71 71 71 71 70 70 69 68 68 67 67 67 68 68 68 68 68 69 70 70 70 71 71 71 72 73 74 75 75 75 75 75 76 75 75 75 73 71 71 73 73 73 74
60 59 59 59 58 58 60 61 61 61 61 61 61 63 65 67 68 69 70 72 73 72 70 71 70 66 68 74 75 72 71 71 70 70 70 70 70 70 71 71 71 71 71 71 71 71 71 71 71 70 69 69 69 68 68 68 69 69 69 69 68 69 69 70 70 70 71 72 73 74 75 75 76 76 75 75 76 76 76 73 71 73 76 77 77 76
63 63 62 62 60 59 61 64 63 63 63 60 60 63 66 68 69 70 71 72 73 73 72 72 69 67 70 75 74 73 72 72 72 72 71 71 71 71 71 71 71 71 71 72 72 72 72 72 72 71 71 71 70 70 69 69 69 69 69 69 69 69 69 69 69 69 69 71 72 73 74 75 76 76 76 75 76 77 77 76 74 74 75 77 80 81
66 65 64 65 62 59 62 64 64 65 62 57 59 65 68 69 69 70 70 71 73 75 75 74 72 72 73 74 74 74 74 73 74 73 72 72 72 72 71 71 71 71 71 72 72 72 72 72 73 72 72 72 71 70 70 69 69 69 69 69 69 69 69 68 68 68 68 69 70 71 73 75 75 76 76 76 76 77 78 78 77 76 77 78 80 81
69 68 67 67 64 62 63 65 66 64 60 58 63 67 68 69 70 71 71 72 74 76 76 76 76 76 76 75 75 76 75 75 75 74 73 73 72 71 71 70 70 70 70 71 71 71 72 72 72 72 72 72 71 71 70 69 69 68 68 68 68 68 68 68 68 68 67 68 68 69 71 73 75 76 76 76 76 76 78 78 78 77 77 79 81 81
70 70 70 69 67 65 64 65 65 62 60 62 66 66 67 69 71 72 73 75 76 77 77 78 79 80 79 79 78 77 76 76 76 75 75 74 73 72 72 71 70 70 70 70 70 70 71 71 71 71 71 71 71 70 70 70 69 68 68 68 68 68 68 68 68 67 67 67 68 68 69 71 73 75 75 75 75 76 77 78 78 77 77 78 80 82
69 70 70 70 70 68 66 66 65 62 62 65 66 66 68 71 72 73 75 76 78 78 79 80 81 82 82 82 81 79 78 77 77 77 76 75 74 73 73 73 72 71 71 71 71 71 71 71 71 72 72 72 71 71 71 70 70 68 68 68 69 69 69 69 68 67 67 67 67 68 69 70 71 72 73 74 75 75 76 77 77 77 77 78 79 82
69 70 70 70 70 70 69 68 66 64 64 66 67 69 70 72 73 75 76 77 78 79 80 81 81 82 82 82 82 81 80 79 78 78 77 75 74 74 73 73 72 72 72 73 72 72 72 72 72 72 72 72 73 72 72 71 71 70 69 69 69 69 69 69 68 68 67 66 66 67 68 68 69 70 71 71 72 73 73 74 76 76 77 78 80 83
69 70 70 70 70 70 71 70 69 67 66 67 69 71 72 73 75 76 76 77 77 78 79 79 79 80 80 80 79 79 78 77 78 78 76 74 73 72 72 71 71 71 72 72 72 72 72 73 72 72 72 73 74 74 73 72 72 71 70 70 70 71 70 70 69 68 67 65 64 65 66 67 67 68 68 69 69 70 71 71 73 75 77 78 80 83
70 70 71 71 71 71 72 71 70 70 70 70 71 73 74 75 76 76 76 75 74 75 76 76 76 76 75 75 74 74 74 73 74 76 75 72 71 70 69 68 68 68 69 69 70 70 71 71 71 72 73 73 74 75 74 73 72 71 71 71 72 72 71 71 70 68 65 64 63 63 64 65 65 65 66 66 67 68 68 69 71 73 75 77 79 82
71 71 71 71 72 72 72 72 71 71 72 72 73 74 75 76 76 76 74 72 71 71 71 71 71 71 71 71 70 69 70 70 71 74 74 73 71 69 68 67 67 67 67 67 67 67 67 68 68 69 71 72 73 74 74 72 72 71 71 72 72 72 72 71 69 66 64 63 63 63 62 63 63 63 63 64 65 66 67 68 70 71 73 76 78 81
72 71 71 71 71 71 71 71 71 71 72 72 73 73 74 74 73 72 70 69 68 67 66 66 67 68 68 68 67 67 67 68 68 70 71 71 70 69 68 67 66 66 66 65 65 64 64 64 65 65 67 69 70 70 70 69 69 69 70 71 71 71 71 70 68 65 63 62 62 62 61 61 61 61 60 61 62 64 65 66 68 70 73 75 78 79
75 73 72 71 71 70 70 69 69 69 70 70 70 70 69 68 68 66 65 65 65 65 64 63 63 65 65 65 65 65 65 66 66 67 68 68 68 67 67 66 65 64 64 64 64 63 61 61 61 61 63 64 64 64 64 64 63 64 66 68 68 68 68 67 65 63 62 61 61 61 61 61 61 61 60 60 60 62 63 64 66 68 71 74 77 78
74 73 71 70 70 68 67 67 66 66 66 66 65 64 63 63 63 62 62 62 62 62 63 62 62 63 63 62 62 62 62 63 64 65 65 65 65 65 65 64 63 62 62 62 62 61 59 58 58 59 59 60 59 59 59 59 59 60 63 64 64 65 64 63 62 61 60 60 60 61 60 60 61 61 60 60 60 61 63 64 65 67 69 72 75 76
69 69 69 69 68 66 64 63 63 63 63 62 60 59 59 60 60 60 60 60 60 61 61 62 62 61 60 60 59 59 59 60 61 62 62 62 62 62 62 62 62 62 61 61 60 59 58 57 57 58 57 57 56 55 56 56 56 57 59 59 60 61 59 57 57 57 57 58 59 59 59 58 59 59 60 61 61 62 64 66 66 67 69 71 73 75
66 67 68 68 67 65 62 61 62 61 60 58 57 58 59 59 59 58 58 58 58 59 60 60 60 60 59 57 56 56 57 58 58 59 59 59 60 60 59 60 60 60 60 60 59 58 57 55 55 56 56 56 54 53 54 55 55 55 55 56 56 56 53 52 52 53 55 55 56 56 56 56 56 57 59 60 61 62 64 66 67 68 70 72 74 75
65 66 66 65 65 63 60 59 60 60 59 58 58 57 58 58 58 58 56 56 56 57 58 58 57 57 56 55 53 52 53 55 55 56 57 58 58 58 58 58 58 58 58 58 58 58 56 55 54 55 56 55 53 52 54 55 54 53 53 52 52 51 50 50 51 53 54 54 54 54 54 55 56 57 58 59 60 61 62 64 66 68 70 72 73 74
64 64 63 62 60 58 57 58 60 60 60 60 59 57 57 57 57 56 55 54 54 55 56 56 55 54 53 53 53 52 52 54 55 56 57 57 57 58 58 57 57 57 56 56 56 56 55 54 54 54 54 53 52 53 55 55 53 51 50 50 50 50 50 50 52 53 53 53 53 54 55 56 57 57 58 58 59 60 61 63 65 67 68 70 71 72
60 60 60 59 57 56 56 58 60 61 60 60 59 59 58 56 55 54 53 53 53 54 54 55 54 53 53 53 54 54 54 55 56 57 57 57 57 59 59 59 58 57 56 55 55 54 53 52 52 52 51 50 51 53 54 53 51 49 48 49 49 49 49 49 50 51 51 51 52 53 54 55 56 56 57 57 58 59 61 62 63 64 66 67 69 69
57 57 57 56 55 55 56 58 59 58 58 60 61 60 59 57 54 53 53 53 53 53 53 53 53 53 54 55 56 57 56 57 58 58 57 57 58 59 59 59 59 57 56 56 56 54 53 53 52 51 50 51 51 51 51 50 48 46 46 47 47 46 46 47 47 47 47 48 50 51 51 51 52 52 53 54 55 56 58 58 59 60 62 63 64 64
56 55 54 54 54 55 57 59 58 55 54 59 63 61 59 57 56 54 54 53 53 52 52 52 53 54 55 55 57 58 57 57 58 58 57 57 58 59 58 58 57 56 56 56 56 54 54 53 52 52 52 52 51 50 50 49 47 46 46 46 44 43 43 44 44 44 44 44 45 45 45 45 46 47 49 49 50 51 52 53 54 55 56 57 58 59
54 54 54 53 53 54 56 58 57 54 53 57 62 62 60 59 57 55 54 55 54 53 53 52 52 54 55 56 56 56 55 55 56 57 56 56 57 57 56 55 54 54 55 54 54 53 53 52 52 53 53 52 51 50 50 49 48 46 45 44 42 42 41 41 41 41 40 40 40 39 39 40 41 43 44 45 45 45 46 47 49 51 51 52 54 55
Wind_Direction
258 258 258 258 260 261 260 260 259 259 260 261 262 262 262 262 262 262 262 264 267 269 269 268 267 267 264 261 262 262 262 262 262 262 263 263 264 263 263 262 262 263 264 265 265 265 266 266 266 266 266 266 266 266 265 264 263 263 263 263 263 262 262 261 261 261 261 261 261 260 260 259 257 256 256 255 255 253 250 247 246 245 244 243 242 240
257 258 259 260 261 260 259 259 258 258 259 260 262 263 264 264 264 263 262 262 264 267 269 269 268 268 265 261 260 261 262 262 263 264 264 264 263 262 262 261 262 263 263 263 263 263 263 264 264 265 265 266 267 266 264 263 262 261 261 261 260 260 259 258 257 257 258 258 258 258 257 256 255 254 253 252 251 249 247 244 244 244 244 244 244 243
258 258 259 260 260 259 259 259 258 258 258 259 260 262 263 263 264 264 264 263 263 264 266 268 268 267 266 263 261 261 263 263 263 264 264 263 262 261 262 262 262 261 261 262 262 263 263 264 264 263 264 265 264 263 262 261 259 258 257 257 257 257 255 255 254 254 254 254 254 254 254 254 254 254 253 251 249 246 245 245 244 243 244 244 245 245
259 259 260 259 259 259 259 259 260 259 259 258 259 260 261 262 263 264 264 263 263 263 264 265 266 266 266 265 262 261 262 262 263 263 263 262 261 261 263 265 264 263 263 264 265 266 266 266 265 264 264 263 261 260 260 258 254 253 252 252 252 252 252 252 252 252 251 251 251 251 252 253 253 254 254 252 250 247 246 246 246 245 244 245 246 245
259 259 259 259 259 258 259 259 259 259 259 259 259 259 260 261 262 263 263 262 262 262 262 263 264 265 265 265 264 262 261 260 260 260 259 258 258 260 263 266 268 268 267 267 267 266 266 265 266 265 263 261 260 260 258 255 251 249 248 248 248 248 249 250 250 249 248 247 248 249 251 252 253 254 254 254 252 250 248 248 247 247 246 246 246 246
258 258 259 258 259 259 259 259 259 259 260 260 260 260 260 261 261 262 262 262 261 261 261 262 262 263 263 263 263 263 262 260 259 258 258 257 257 258 261 262 263 264 264 265 266 265 265 265 265 264 264 262 261 258 256 255 253 250 248 247 246 246 247 248 248 248 246 246 247 249 251 252 253 253 253 254 254 253 251 250 249 248 248 247 247 247
259 258 259 260 260 260 260 259 258 259 260 260 261 261 261 261 261 261 261 261 261 261 260 260 260 261 263 263 262 262 262 262 261 260 259 258 257 257 259 259 258 258 259 260 261 262 262 262 263 264 266 265 262 258 256 256 255 254 253 251 250 249 248 249 249 248 248 248 249 250 251 252 253 253 253 253 254 254 253 251 250 250 249 248 247 247
261 259 260 261 262 261 260 260 259 260 260 260 261 261 261 261 261 261 261 260 260 260 259 258 258 258 261 263 263 263 263 263 262 260 259 259 258 257 257 259 261 262 261 260 260 260 260 260 262 265 267 268 266 262 260 258 257 256 256 256 254 253 252 252 252 251 251 251 252 252 252 252 252 252 252 253 253 254 253 252 251 251 250 249 248 247
262 261 261 261 261 260 261 261 261 261 261 261 261 262 261 261 261 261 261 260 260 259 259 258 257 256 256 260 263 264 264 264 263 262 261 260 259 257 256 258 262 264 266 264 261 261 261 261 263 264 266 268 267 266 265 263 261 260 259 259 258 256 255 255 254 254 253 253 253 254 254 253 252 252 252 252 252 253 253 253 252 251 251 250 249 248
263 264 263 262 261 261 261 262 262 261 261 261 262 262 262 262 262 261 261 261 260 260 260 259 257 256 254 256 261 263 263 263 264 264 263 262 260 259 257 257 259 262 264 264 262 262 264 264 264 264 265 265 266 266 266 266 265 264 262 261 260 259 257 256 256 255 255 255 254 255 256 255 254 253 252 252 252 253 253 253 253 252 251 250 249 248
263 264 264 263 262 262 263 263 262 262 261 261 262 262 262 262 261 261 261 261 261 260 259 259 258 257 255 255 257 260 260 261 262 263 263 264 263 261 258 257 257 257 259 261 263 263 264 264 264 264 264 265 265 266 266 266 266 265 264 263 262 261 260 259 258 257 256 256 255 255 256 256 256 254 252 252 252 252 253 253 253 253 253 252 250 249
262 263 264 264 264 263 263 263 262 262 261 261 261 261 262 261 261 261 261 260 260 259 258 258 258 257 256 255 256 258 260 260 260 261 263 263 263 262 260 258 257 257 257 259 261 262 263 263 263 264 264 265 265 265 266 266 266 265 265 264 263 263 262 261 260 259 258 257 257 256 256 256 256 255 253 252 252 252 252 253 253 253 253 253 253 251
264 263 263 263 264 263 263 263 262 262 261 261 261 261 262 262 262 261 261 260 260 259 259 259 259 258 257 256 255 257 259 260 261 261 262 262 261 261 260 259 258 258 258 258 259 260 261 262 263 263 264 264 265 265 265 265 265 265 264 264 263 263 262 262 262 261 260 259 258 257 256 256 255 254 254 252 252 252 252 252 252 252 252 253 253 253
265 265 264 264 264 264 264 263 262 262 262 262 261 262 262 263 262 262 262 262 262 261 262 262 261 261 259 258 256 256 258 259 260 260 260 260 261 261 260 259 258 257 258 259 259 259 260 262 262 262 263 263 264 265 265 265 264 264 264 263 262 261 261 261 261 261 261 260 258 257 256 255 254 254 253 252 252 251 252 252 251 251 251 252 253 254
266 266 265 265 265 265 265 265 264 264 264 263 263 263 263 264 263 263 263 263 262 261 261 261 261 261 260 259 257 257 258 259 259 259 259 260 260 261 261 261 260 259 259 260 260 260 260 261 261 262 262 262 263 263 263 262 262 261 262 262 261 260 259 259 259 259 259 259 258 257 256 254 253 253 253 253 252 251 251 252 251 251 251 251 251 252
265 266 266 265 265 265 265 265 265 265 265 265 264 264 264 264 264 263 263 263 262 261 261 261 261 260 260 260 260 259 259 260 259 259 258 259 258 259 259 260 261 260 260 261 261 260 260 261 261 262 262 262 261 261 260 259 259 259 259 260 261 260 259 258 257 257 257 257 257 257 256 255 254 253 252 252 252 252 252 251 251 251 251 250 250 250
264 265 265 265 265 265 265 265 265 266 266 266 265 265 264 264 264 264 264 263 264 264 263 263 263 262 261 261 261 260 260 259 259 258 257 257 257 256 257 258 259 260 260 261 261 261 261 261 262 262 263 263 262 262 261 261 261 260 259 259 260 260 259 259 258 258 257 257 257 257 257 256 256 255 253 253 252 252 252 252 252 251 251 251 250 250
263 263 264 264 264 264 265 266 266 265 266 266 265 265 264 264 264 264 264 264 265 265 265 264 264 263 262 261 261 260 260 260 259 259 258 258 257 257 256 257 258 259 260 260 261 261 262 262 262 263 263 263 263 263 263 263 262 261 260 260 260 260 259 259 259 260 259 259 258 257 257 257 257 256 255 254 253 253 252 252 252 252 251 251 250 250
264 264 265 265 264 264 263 264 265 265 265 266 266 265 265 264 263 263 263 264 264 264 264 264 264 264 264 262 261 261 261 261 261 261 261 260 260 259 258 257 257 259 260 260 260 260 261 261 262 262 263 263 262 262 262 262 262 262 261 261 260 260 260 260 259 260 260 260 259 259 258 257 257 256 255 254 253 253 252 252 252 252 251 251 251 250
265 265 265 266 266 266 265 264 265 264 264 264 265 265 265 265 264 264 263 263 263 264 264 264 265 265 265 264 263 263 263 264 264 264 263 263 262 262 260 259 258 259 260 260 260 260 261 261 261 262 262 262 262 262 262 262 262 262 261 261 260 259 259 259 259 258 258 258 259 259 258 258 257 256 255 254 252 252 251 251 250 250 250 250 251 250
265 265 265 266 267 268 268 267 267 266 265 263 263 264 265 265 265 265 264 264 264 265 265 265 266 266 267 267 267 266 265 266 266 266 266 265 264 264 263 262 261 260 261 261 262 262 262 262 262 262 262 262 261 261 262 262 262 261 260 260 260 260 259 259 259 258 257 257 257 257 257 257 257 256 255 254 253 252 251 250 250 250 250 249 250 250
264 264 265 266 267 268 269 270 270 269 268 266 263 263 264 265 265 264 264 265 265 265 265 265 265 265 266 267 267 267 266 266 266 266 266 266 266 265 264 264 263 262 261 261 261 261 262 262 262 262 261 261 261 260 261 261 262 262 262 261 260 260 260 259 260 260 259 258 258 257 257 256 255 255 255 254 254 253 252 251 250 250 250 250 249 249
262 262 262 263 265 266 268 269 270 271 271 270 267 265 264 264 265 266 265 265 265 265 264 263 263 263 264 264 265 266 266 266 265 265 265 265 265 265 264 263 263 262 262 261 261 261 261 261 262 262 262 261 261 261 261 261 262 263 263 263 262 261 260 260 260 261 261 261 260 258 257 256 256 255 255 255 255 254 254 253 252 251 251 251 251 250
263 262 261 261 262 264 266 266 267 268 270 271 271 270 268 267 266 266 266 265 265 265 264 263 263 263 263 263 263 264 265 266 266 266 265 265 265 265 264 264 263 262 263 263 263 263 263 263 263 264 264 264 263 263 262 262 262 263 264 264 264 263 262 261 260 260 261 261 260 259 257 256 256 255 255 255 255 255 255 255 254 254 253 253 253 252
264 263 263 262 262 263 265 266 266 266 267 268 270 271 271 270 269 268 267 265 265 264 264 264 264 262 262 263 264 264 264 265 265 265 266 266 266 266 266 266 266 265 264 264 265 265 265 265 265 265 266 266 266 265 264 263 263 263 264 264 264 263 263 262 261 260 259 259 259 259 259 258 257 255 254 254 255 255 255 256 256 255 255 255 255 254
264 264 264 263 263 263 264 265 265 266 267 268 269 269 270 271 271 270 268 267 266 265 264 265 265 263 262 262 263 263 263 263 264 265 265 266 267 267 267 268 268 268 267 267 266 265 265 264 264 264 265 265 266 266 266 265 264 264 264 264 264 264 264 263 261 260 259 258 258 258 258 258 258 256 255 254 253 254 254 254 255 255 256 256 255 255
265 265 265 265 265 264 264 264 265 266 267 267 268 269 270 270 271 271 271 271 270 267 266 267 266 263 263 263 262 261 261 262 263 264 264 265 266 266 267 267 268 268 268 267 266 265 264 263 263 262 262 263 263 264 265 265 266 266 266 266 265 265 265 265 263 262 261 259 258 257 257 257 257 257 256 255 254 253 253 253 254 254 255 255 255 255
266 266 267 267 267 266 265 265 265 266 267 267 268 269 269 270 270 271 272 272 271 271 270 269 267 266 265 264 263 262 262 262 262 262 262 263 264 265 266 266 267 267 267 266 266 265 265 264 263 263 262 262 262 262 263 264 265 266 266 266 266 265 265 265 264 263 262 261 259 258 257 256 256 256 256 256 255 254 253 254 255 256 255 254 254 253
269 269 269 269 269 268 268 267 267 267 268 268 269 270 270 269 270 270 270 270 270 270 269 268 268 268 268 267 266 265 264 263 262 261 260 260 261 262 263 264 265 265 265 265 266 266 265 265 265 264 264 263 262 262 262 263 264 264 264 264 264 264 264 264 264 263 262 262 261 260 258 257 257 256 256 256 256 255 254 252 252 254 256 255 254 253
271 271 271 270 270 270 270 269 269 269 268 268 269 269 270 270 270 270 270 269 269 269 268 267 267 268 269 268 267 266 265 264 263 262 261 260 260 260 261 262 262 263 264 264 265 266 266 266 266 265 264 264 263 262 262 262 262 262 262 262 262 263 263 263 263 263 263 262 261 261 260 259 258 257 256 255 255 255 254 252 249 249 252 253 253 252
272 271 271 270 270 270 271 270 270 269 269 269 270 271 271 270 271 271 270 270 270 270 269 268 268 269 268 268 268 267 266 266 264 263 262 262 261 260 260 260 260 261 262 262 263 264 265 265 265 265 264 264 263 262 262 261 261 260 260 260 260 261 262 263 263 263 264 263 262 261 261 260 259 258 256 255 254 253 252 251 249 248 248 249 251 250
271 271 271 271 271 271 271 271 271 270 270 271 272 272 271 269 269 270 271 272 273 273 272 271 271 270 268 268 269 269 269 268 267 265 264 263 262 261 260 260 260 260 260 260 261 262 262 262 263 263 263 263 263 262 262 261 261 261 261 260 260 259 260 260 261 262 263 264 263 263 262 260 259 259 257 255 254 253 252 250 249 248 247 247 249 250
272 272 272 272 272 271 271 271 271 270 271 273 272 270 269 270 270 271 272 273 274 274 273 273 273 270 268 269 269 269 269 268 268 267 266 265 264 263 262 261 261 260 260 260 260 260 260 261 261 261 262 262 262 261 261 261 262 262 262 262 261 261 260 260 260 260 261 262 262 262 262 261 260 259 258 256 255 253 253 251 249 248 247 247 248 250
274 274 273 273 272 270 269 270 270 271 273 272 269 269 270 272 272 272 273 273 273 273 274 274 273 272 271 271 270 270 270 269 269 269 268 268 267 266 265 264 263 262 262 261 260 260 260 260 260 261 261 261 261 261 261 261 261 261 261 262 262 261 261 261 261 260 260 260 260 260 260 260 260 259 258 257 256 254 253 252 251 249 248 247 247 248
275 275 275 274 273 271 270 270 270 272 272 270 269 270 272 272 272 272 272 272 272 273 274 274 274 274 274 273 272 272 272 271 271 271 270 269 269 268 267 266 265 265 264 263 262 262 262 262 261 261 261 261 261 261 261 261 260 260 260 260 260 260 260 261 261 261 261 261 260 259 258 258 258 258 258 257 256 255 253 252 251 249 248 247 246 246
274 275 276 276 276 275 274 273 272 272 271 271 271 271 271 271 271 272 272 272 272 273 273 273 273 274 274 274 274 274 273 272 272 271 270 269 268 268 267 266 266 265 264 264 263 263 262 262 262 262 262 261 261 261 261 261 260 260 259 260 260 260 260 261 261 261 261 261 261 260 259 257 256 256 256 256 255 255 254 254 252 250 248 247 246 245
273 274 274 275 276 276 276 275 275 274 273 272 272 271 271 271 271 271 271 271 271 272 272 272 273 273 273 274 274 274 274 273 272 271 270 269 268 267 266 265 264 263 263 262 262 262 262 262 262 262 262 262 262 262 262 261 262 262 262 262 262 262 262 263 262 262 260 259 259 259 259 258 257 256 255 255 255 255 254 254 253 252 249 247 245 244
273 273 274 275 275 276 276 276 276 276 274 274 273 272 272 271 270 270 270 271 271 272 272 271 271 271 272 272 272 272 272 272 272 271 270 269 268 267 266 265 264 263 262 261 261 261 261 261 262 262 262 262 263 263 263 263 263 264 264 264 264 265 265 264 264 262 261 260 258 257 256 256 256 256 256 255 255 255 254 253 253 252 251 249 246 245
273 273 274 275 275 276 276 277 277 277 276 275 274 274 273 272 272 271 271 271 271 271 271 271 271 270 270 270 270 270 270 270 271 271 270 269 268 267 267 266 265 264 263 263 262 261 260 260 260 260 261 261 261 262 262 263 264 264 265 265 265 265 265 265 264 263 262 262 260 258 256 255 254 254 254 255 255 255 255 254 253 252 251 250 248 247
272 272 272 273 273 274 275 275 275 275 275 275 274 273 273 273 273 273 273 273 271 270 270 270 271 270 270 269 268 268 268 267 267 268 269 269 268 268 267 266 266 265 264 263 262 261 260 260 259 259 259 259 259 260 261 262 262 263 264 264 264 264 264 264 264 263 263 262 261 260 258 256 255 253 252 252 253 254 254 254 254 253 252 251 250 248
274 273 273 273 273 273 273 273 273 273 273 273 272 272 272 273 273 274 274 273 272 271 270 269 269 269 269 268 268 268 267 266 265 266 266 267 267 267 266 265 265 265 264 264 263 261 260 260 259 258 258 258 258 259 260 260 261 261 262 262 262 262 262 263 263 263 262 261 261 260 260 259 258 257 254 253 252 252 252 252 253 253 253 253 252 250
277 276 276 275 275 274 274 273 273 272 272 272 272 272 272 272 272 273 273 272 272 271 270 269 267 267 266 266 266 266 266 266 266 266 266 266 267 267 267 266 265 265 265 264 264 263 262 261 261 260 260 260 259 259 259 259 259 259 259 259 259 260 260 261 261 261 261 260 260 260 259 259 259 259 257 256 255 255 254 253 253 253 253 254 254 254
277 278 277 277 276 275 274 274 274 273 272 272 272 272 272 272 272 272 271 271 271 270 270 268 267 266 265 265 265 265 265 266 266 266 266 266 267 267 268 268 267 266 265 264 264 264 264 264 263 262 261 261 260 260 260 259 258 257 257 257 257 257 258 258 259 260 260 260 259 259 259 258 259 259 260 259 258 257 257 255 254 254 254 254 255 255
276 277 277 276 276 275 275 275 275 274 274 274 273 273 272 271 270 270 269 269 269 269 268 268 267 267 266 266 266 267 266 266 265 265 266 266 266 266 266 267 267 267 266 266 265 265 265 264 264 264 263 262 261 260 260 259 258 257 257 257 256 257 257 258 258 259 258 258 258 258 258 257 257 257 258 257 257 257 256 256 256 255 255 255 255 255
275 275 275 276 277 277 278 278 277 276 275 275 274 273 271 270 269 268 268 268 269 269 268 268 269 269 268 267 266 266 267 267 266 266 266 266 266 265 265 265 265 265 266 266 266 265 265 264 264 264 264 263 262 261 261 260 259 258 257 258 258 259 259 260 260 259 259 258 257 257 257 256 256 255 254 254 254 254 254 255 256 256 256 256 256 256
274 274 275 276 277 279 280 280 279 278 277 275 273 271 271 271 271 270 270 270 270 270 270 269 269 269 269 269 268 266 266 266 266 266 266 265 265 265 264 263 263 263 263 264 264 264 264 263 263 262 262 262 262 262 261 261 260 259 259 260 260 261 261 260 260 260 259 259 259 260 259 258 257 256 255 254 253 252 252 252 253 253 254 255 256 257
274 275 276 277 278 279 280 279 278 277 277 276 275 274 273 272 272 272 272 271 271 270 270 270 270 270 270 270 269 267 265 264 264 264 264 264 265 265 265 264 263 263 262 262 262 262 262 262 261 261 261 262 262 261 260 260 260 260 261 260 260 260 259 258 257 257 257 258 259 258 258 257 257 256 256 255 254 253 252 251 251 252 253 254 255 257
274 275 276 277 278 279 278 277 277 277 278 278 278 276 274 272 272 272 272 271 270 269 269 269 270 270 270 270 268 267 266 265 264 263 262 263 264 264 265 265 264 264 264 264 264 263 263 263 262 262 262 262 261 260 260 260 260 260 259 258 257 256 255 255 254 254 254 255 254 254 254 254 255 255 255 254 254 253 252 251 251 251 252 252 254 255
274 275 276 277 278 278 277 276 275 277 278 279 278 276 275 275 274 273 271 270 269 269 269 269 270 269 269 268 268 267 266 266 265 265 264 264 264 264 264 264 265 265 266 266 266 266 266 266 265 265 264 263 262 262 262 262 261 260 259 258 257 256 255 254 254 254 254 253 253 253 253 253 253 252 252 251 251 250 250 250 250 250 251 252 253 253
276 277 278 278 278 277 277 276 276 276 277 277 277 276 276 276 275 274 273 272 271 270 270 269 269 268 267 266 265 265 265 265 266 266 266 265 264 264 264 264 264 265 264 265 265 265 265 265 266 266 265 264 264 264 265 264 263 261 260 259 259 259 258 257 257 257 256 255 255 255 254 253 251 250 249 248 247 247 248 248 248 248 249 250 251 252
280 280 279 278 277 277 277 277 277 277 276 275 275 276 276 275 275 275 275 275 275 273 271 269 268 268 267 266 265 265 265 265 265 265 265 264 263 263 263 264 264 263 263 263 263 263 263 264 264 263 263 264 264 264 264 264 264 263 263 262 262 261 260 260 259 259 257 256 255 254 252 251 249 247 246 246 245 245 245 246 246 247 248 250 252 254
Height
10578 10577 10577 10579 10583 10585 10586 10585 10585 10585 10585 10584 10583 10584 10585 10586 10588 10590 10593 10593 10593 10594 10595 10597 10597 10599 10602 10603 10600 10597 10596 10596 10596 10596 10597 10598 10598 10597 10597 10596 10596 10595 10595 10597 10598 10598 10599 10599 10600 10602 10603 10605 10609 10612 10613 10615 10616 10617 10617 10618 10618 10620 10621 10621 10621 10622 10623 10624 10625 10626 10628 10629 10631 10633 10635 10636 10638 10640 10641 10643 10644 10646 10648 10650 10651 10653
10573 10571 10573 10577 10579 10580 10579 10579 10579 10579 10580 10580 10579 10579 10579 10581 10582 10584 10587 10590 10590 10590 10590 10591 10592 10594 10596 10597 10596 10593 10592 10593 10593 10593 10594 10594 10594 10593 10592 10592 10592 10592 10592 10592 10593 10594 10595 10595 10597 10598 10598 10601 10604 10606 10608 10610 10612 10613 10613 10613 10613 10615 10616 10616 10617 10618 10619 10620 10621 10622 10623 10625 10627 10629 10631 10632 10634 10636 10637 10639 10640 10642 10644 10646 10647 10649
10567 10567 10570 10573 10573 10573 10573 10573 10573 10574 10575 10575 10574 10574 10574 10575 10577 10579 10582 10585 10586 10586 10586 10586 10587 10588 10589 10590 10590 10590 10589 10590 10590 10590 10591 10591 10590 10589 10588 10589 10590 10588 10588 10588 10589 10591 10592 10592 10593 10593 10594 10597 10600 10601 10603 10606 10607 10608 10608 10608 10609 10610 10610 10611 10613 10614 10616 10617 10617 10618 10619 10620 10622 10624 10626 10628 10630 10632 10634 10635 10637 10639 10640 10642 10643 10645
10561 10563 10566 10566 10566 10567 10567 10567 10568 10568 10569 10569 10570 10570 10569 10570 10573 10574 10577 10580 10581 10582 10582 10581 10582 10583 10583 10583 10584 10585 10586 10587 10588 10588 10588 10588 10587 10586 10586 10586 10586 10585 10584 10585 10586 10588 10588 10588 10589 10589 10591 10593 10596 10598 10600 10601 10602 10603 10603 10604 10605 10605 10606 10607 10609 10611 10612 10613 10614 10615 10615 10617 10618 10620 10622 10624 10627 10629 10630 10631 10633 10635 10636 10638 10639 10641
10556 10558 10560 10560 10561 10562 10562 10563 10562 10562 10562 10564 10565 10565 10565 10566 10568 10570 10572 10574 10575 10577 10577 10577 10577 10578 10578 10577 10576 10578 10581 10583 10584 10584 10584 10585 10585 10584 10585 10585 10584 10582 10582 10582 10583 10584 10584 10584 10584 10584 10586 10589 10592 10595 10595 10596 10597 10599 10599 10600 10601 10601 10602 10603 10605 10607 10609 10610 10611 10611 10612 10613 10615 10616 10618 10620 10623 10625 10626 10628 10629 10631 10633 10634 10636 10637
10551 10554 10554 10555 10556 10556 10557 10557 10557 10557 10557 10558 10559 10560 10560 10562 10564 10565 10567 10568 10569 10571 10572 10572 10573 10573 10572 10572 10571 10572 10575 10577 10579 10580 10579 10580 10581 10582 10583 10584 10583 10581 10579 10578 10579 10580 10580 10580 10580 10579 10581 10585 10589 10591 10591 10591 10593 10595 10596 10597 10597 10598 10598 10599 10601 10603 10605 10606 10607 10608 10609 10610 10611 10613 10615 10617 10619 10621 10623 10624 10626 10627 10629 10631 10632 10634
10546 10549 10549 10550 10551 10551 10551 10551 10551 10552 10552 10553 10553 10554 10556 10557 10558 10560 10561 10562 10563 10565 10567 10568 10568 10568 10567 10566 10566 10567 10569 10571 10573 10574 10574 10575 10577 10580 10581 10580 10579 10577 10576 10575 10575 10576 10577 10576 10575 10574 10576 10580 10584 10586 10586 10588 10589 10591 10592 10593 10593 10594 10595 10595 10597 10599 10601 10603 10604 10605 10606 10607 10608 10609 10611 10613 10615 10617 10619 10620 10622 10623 10625 10627 10628 10630
10541 10544 10545 10546 10546 10546 10545 10545 10546 10547 10548 10547 10547 10548 10550 10551 10552 10554 10555 10556 10557 10559 10561 10562 10563 10564 10563 10560 10559 10562 10564 10564 10566 10567 10569 10570 10573 10576 10577 10576 10574 10572 10571 10571 10571 10571 10572 10572 10570 10570 10572 10575 10578 10580 10582 10584 10586 10587 10587 10588 10589 10590 10591 10591 10593 10596 10598 10599 10600 10601 10602 10603 10605 10606 10607 10609 10611 10613 10614 10616 10618 10619 10621 10623 10624 10626
10537 10539 10541 10541 10540 10539 10539 10540 10541 10543 10542 10542 10542 10543 10544 10545 10547 10548 10549 10550 10551 10553 10554 10555 10556 10559 10560 10556 10553 10557 10558 10557 10558 10560 10563 10565 10568 10571 10572 10571 10569 10567 10565 10564 10564 10566 10566 10566 10566 10566 10568 10569 10572 10574 10576 10579 10581 10582 10583 10584 10585 10586 10587 10588 10589 10591 10593 10595 10596 10597 10598 10599 10601 10602 10604 10605 10607 10608 10610 10611 10613 10615 10617 10618 10620 10622
10533 10534 10536 10536 10534 10534 10535 10535 10536 10536 10536 10537 10537 10538 10538 10539 10541 10542 10542 10543 10545 10548 10547 10547 10549 10552 10555 10554 10551 10551 10551 10550 10551 10553 10555 10558 10562 10565 10566 10566 10564 10563 10559 10555 10557 10560 10560 10561 10561 10562 10563 10564 10566 10568 10571 10574 10575 10576 10577 10578 10580 10581 10582 10583 10584 10586 10588 10590 10592 10593 10594 10596 10597 10599 10600 10601 10603 10604 10606 10607 10609 10611 10612 10614 10615 10617
10529 10528 10529 10529 10528 10529 10530 10530 10530 10530 10531 10531 10532 10532 10532 10534 10535 10536 10537 10537 10539 10541 10539 10539 10542 10546 10550 10551 10548 10545 10544 10544 10545 10547 10548 10551 10555 10557 10559 10559 10558 10557 10553 10549 10551 10555 10554 10554 10555 10556 10558 10559 10561 10563 10566 10568 10569 10570 10571 10572 10574 10576 10577 10578 10579 10581 10583 10585 10587 10589 10590 10592 10593 10594 10596 10597 10599 10600 10601 10603 10604 10606 10608 10609 10611 10612
10523 10523 10523 10522 10522 10523 10523 10523 10523 10523 10524 10525 10526 10526 10526 10527 10529 10530 10530 10531 10533 10534 10532 10533 10537 10540 10543 10546 10544 10540 10537 10538 10540 10542 10543 10545 10547 10549 10551 10552 10551 10549 10546 10545 10547 10549 10548 10548 10549 10550 10552 10554 10556 10558 10560 10562 10563 10563 10564 10566 10568 10569 10571 10572 10573 10575 10577 10580 10582 10583 10585 10586 10588 10590 10591 10593 10595 10596 10597 10599 10600 10601 10603 10604 10606 10607
10516 10517 10517 10515 10514 10515 10516 10516 10516 10516 10517 10519 10520 10520 10520 10521 10523 10524 10523 10525 10526 10526 10526 10529 10531 10534 10537 10540 10539 10535 10532 10533 10536 10537 10538 10539 10540 10541 10542 10544 10544 10542 10539 10539 10542 10544 10543 10542 10544 10545 10546 10548 10550 10552 10554 10556 10556 10556 10557 10559 10561 10563 10565 10566 10567 10569 10571 10574 10576 10577 10579 10581 10583 10584 10586 10588 10590 10591 10593 10594 10596 10597 10598 10600 10601 10602
10509 10509 10510 10509 10508 10508 10508 10508 10508 10509 10511 10512 10513 10514 10514 10514 10516 10517 10517 10519 10520 10519 10521 10524 10526 10528 10531 10533 10532 10530 10528 10528 10530 10531 10531 10532 10533 10534 10535 10535 10536 10535 10533 10533 10537 10538 10537 10537 10538 10539 10541 10543 10545 10547 10548 10549 10550 10549 10550 10552 10554 10556 10558 10560 10561 10562 10564 10566 10568 10570 10572 10575 10577 10578 10580 10582 10584 10586 10588 10590 10591 10593 10594 10595 10596 10597
10503 10502 10502 10502 10501 10501 10500 10499 10500 10502 10503 10505 10506 10508 10508 10507 10509 10510 10511 10511 10512 10512 10515 10517 10519 10521 10524 10524 10524 10524 10523 10522 10523 10524 10525 10526 10527 10528 10528 10528 10528 10528 10527 10528 10530 10532 10532 10532 10531 10532 10534 10538 10540 10541 10541 10541 10542 10543 10543 10544 10546 10549 10551 10553 10555 10555 10557 10559 10560 10563 10565 10568 10570 10572 10574 10576 10578 10580 10582 10584 10586 10588 10589 10590 10591 10592
10497 10495 10494 10494 10494 10494 10492 10491 10493 10494 10495 10497 10499 10500 10501 10500 10501 10502 10503 10503 10503 10505 10508 10510 10511 10514 10516 10516 10517 10518 10516 10515 10516 10518 10518 10519 10521 10522 10522 10521 10520 10520 10521 10522 10523 10524 10525 10525 10524 10526 10528 10531 10533 10533 10532 10533 10534 10536 10537 10537 10539 10541 10544 10546 10547 10548 10550 10551 10553 10555 10557 10560 10563 10566 10569 10570 10572 10574 10576 10578 10580 10582 10584 10585 10587 10588
10490 10487 10486 10486 10486 10485 10485 10484 10486 10487 10487 10490 10491 10491 10493 10493 10492 10493 10495 10495 10496 10497 10500 10503 10503 10506 10508 10509 10509 10509 10507 10506 10506 10509 10510 10512 10514 10515 10516 10516 10514 10513 10515 10516 10516 10516 10517 10517 10517 10519 10521 10524 10526 10525 10525 10526 10527 10529 10531 10531 10532 10534 10536 10538 10540 10541 10543 10544 10546 10548 10550 10553 10556 10559 10562 10564 10566 10568 10570 10572 10574 10575 10577 10579 10581 10582
10483 10481 10478 10478 10478 10478 10478 10477 10478 10480 10480 10481 10482 10483 10484 10485 10484 10485 10486 10488 10489 10490 10492 10494 10494 10496 10499 10500 10499 10498 10497 10497 10497 10500 10502 10503 10505 10508 10510 10511 10510 10507 10508 10509 10509 10509 10510 10510 10511 10513 10514 10516 10518 10517 10517 10518 10519 10521 10523 10525 10526 10527 10529 10531 10533 10534 10536 10538 10539 10541 10544 10547 10549 10552 10555 10557 10559 10561 10563 10565 10567 10568 10570 10572 10574 10575
10475 10474 10472 10471 10470 10471 10472 10471 10470 10472 10474 10474 10473 10474 10476 10476 10476 10478 10479 10480 10481 10482 10484 10486 10486 10487 10490 10490 10489 10489 10488 10488 10489 10491 10493 10495 10496 10498 10501 10504 10504 10502 10501 10502 10502 10502 10502 10503 10504 10505 10507 10508 10509 10509 10509 10509 10510 10512 10515 10517 10518 10520 10522 10525 10526 10528 10529 10531 10532 10534 10537 10539 10542 10544 10546 10548 10551 10552 10554 10557 10559 10561 10563 10564 10566 10568
10467 10467 10465 10463 10462 10462 10463 10464 10463 10464 10467 10468 10466 10466 10467 10467 10468 10470 10471 10473 10474 10474 10477 10479 10479 10479 10479 10479 10480 10481 10481 10481 10481 10482 10484 10486 10487 10488 10490 10493 10495 10496 10495 10494 10494 10495 10495 10496 10497 10498 10499 10500 10501 10501 10500 10500 10501 10502 10505 10507 10509 10512 10514 10516 10518 10519 10521 10524 10525 10527 10529 10531 10533 10535 10537 10539 10541 10543 10545 10548 10550 10552 10554 10556 10557 10559
10459 10460 10459 10457 10456 10454 10454 10455 10456 10455 10458 10461 10460 10460 10460 10460 10461 10462 10464 10465 10467 10468 10470 10472 10473 10473 10471 10470 10470 10472 10473 10473 10472 10473 10474 10476 10477 10479 10480 10483 10485 10487 10488 10487 10487 10487 10487 10487 10488 10489 10490 10491 10492 10492 10491 10491 10490 10491 10494 10496 10499 10503 10505 10507 10508 10510 10513 10517 10519 10520 10522 10523 10525 10526 10527 10529 10531 10533 10535 10538 10541 10543 10545 10547 10549 10551
10453 10454 10454 10452 10450 10449 10448 10448 10448 10447 10449 10451 10453 10454 10453 10453 10453 10454 10457 10459 10460 10461 10464 10466 10468 10468 10465 10462 10461 10462 10464 10465 10465 10465 10465 10466 10467 10468 10470 10473 10475 10477 10478 10479 10478 10478 10479 10478 10478 10479 10480 10481 10482 10483 10482 10482 10480 10480 10483 10486 10491 10494 10495 10498 10500 10500 10504 10509 10512 10513 10514 10515 10516 10517 10518 10520 10521 10523 10526 10529 10532 10534 10536 10538 10540 10542
10447 10447 10449 10448 10445 10444 10443 10442 10441 10440 10440 10441 10443 10446 10447 10446 10446 10447 10450 10453 10453 10454 10457 10458 10461 10462 10459 10455 10454 10454 10455 10456 10457 10457 10457 10457 10457 10458 10461 10463 10465 10466 10467 10468 10469 10470 10470 10470 10469 10470 10471 10472 10474 10475 10475 10474 10473 10473 10474 10476 10480 10484 10485 10489 10492 10492 10495 10501 10503 10502 10503 10505 10507 10508 10510 10512 10513 10514 10517 10521 10524 10526 10528 10529 10531 10533
10439 10440 10442 10442 10441 10439 10438 10437 10436 10434 10434 10434 10435 10436 10438 10439 10440 10440 10442 10445 10446 10448 10449 10449 10454 10456 10451 10447 10449 10449 10448 10447 10448 10449 10449 10448 10448 10449 10451 10454 10456 10458 10458 10459 10460 10461 10462 10462 10462 10462 10462 10463 10465 10467 10467 10467 10466 10465 10466 10467 10470 10473 10475 10479 10482 10484 10487 10490 10489 10488 10492 10495 10496 10499 10501 10502 10504 10506 10509 10513 10516 10518 10520 10521 10522 10524
10432 10433 10435 10435 10435 10435 10433 10431 10430 10429 10428 10428 10429 10429 10429 10430 10431 10432 10434 10436 10439 10441 10441 10441 10446 10448 10443 10441 10443 10443 10442 10441 10440 10440 10440 10439 10440 10441 10442 10445 10447 10448 10450 10451 10452 10453 10454 10455 10455 10455 10454 10454 10455 10456 10457 10458 10458 10458 10457 10458 10460 10462 10464 10468 10471 10474 10477 10478 10477 10477 10481 10483 10485 10488 10490 10492 10494 10497 10501 10504 10507 10510 10512 10513 10514 10515
10425 10426 10428 10428 10429 10430 10428 10425 10423 10423 10423 10423 10423 10422 10422 10421 10421 10422 10423 10426 10430 10433 10433 10435 10438 10437 10434 10435 10436 10435 10434 10433 10433 10434 10434 10432 10432 10432 10433 10435 10436 10438 10441 10442 10443 10444 10445 10446 10447 10447 10447 10447 10446 10446 10446 10447 10448 10449 10449 10449 10450 10452 10453 10456 10460 10463 10465 10467 10467 10468 10470 10470 10472 10475 10478 10481 10485 10488 10492 10495 10498 10501 10503 10504 10505 10506
10419 10419 10420 10421 10422 10422 10421 10419 10417 10417 10416 10416 10416 10415 10414 10414 10413 10413 10414 10417 10419 10420 10426 10429 10426 10424 10427 10427 10425 10425 10426 10426 10427 10428 10427 10425 10424 10424 10425 10426 10427 10428 10429 10431 10432 10434 10435 10437 10438 10439 10440 10440 10439 10438 10437 10437 10438 10440 10440 10440 10441 10442 10443 10445 10449 10452 10453 10454 10456 10458 10458 10459 10460 10462 10466 10469 10474 10478 10482 10487 10490 10492 10493 10493 10495 10496
10412 10413 10413 10414 10414 10414 10414 10412 10410 10410 10410 10409 10409 10409 10408 10406 10405 10405 10406 10407 10406 10409 10418 10419 10411 10412 10419 10415 10412 10416 10418 10418 10420 10421 10420 10418 10418 10417 10417 10418 10418 10418 10419 10419 10420 10422 10424 10426 10428 10429 10431 10432 10432 10431 10431 10430 10430 10431 10431 10431 10431 10432 10433 10434 10436 10440 10441 10442 10444 10446 10446 10447 10449 10451 10454 10457 10461 10466 10473 10480 10482 10481 10481 10481 10481 10483
10404 10406 10406 10406 10406 10406 10405 10404 10404 10404 10403 10403 10402 10401 10399 10397 10396 10397 10397 10397 10395 10398 10407 10407 10398 10403 10408 10401 10400 10407 10408 10408 10411 10411 10410 10410 10410 10410 10409 10409 10409 10409 10409 10409 10409 10411 10413 10415 10417 10419 10420 10422 10423 10423 10423 10423 10423 10423 10423 10422 10422 10422 10423 10424 10425 10427 10429 10431 10432 10433 10434 10435 10438 10441 10443 10445 10449 10454 10461 10467 10468 10466 10465 10464 10465 10468
10396 10397 10397 10398 10399 10397 10396 10395 10396 10395 10396 10397 10395 10393 10391 10387 10386 10387 10386 10385 10384 10387 10395 10394 10390 10397 10398 10388 10388 10395 10396 10397 10399 10399 10399 10400 10402 10402 10401 10401 10401 10401 10401 10400 10400 10402 10403 10405 10406 10408 10409 10411 10412 10413 10414 10413 10413 10413 10413 10413 10413 10412 10413 10415 10415 10416 10418 10420 10421 10421 10422 10423 10426 10430 10432 10433 10436 10440 10445 10449 10453 10452 10448 10447 10449 10454
10386 10388 10389 10389 10390 10391 10388 10385 10387 10387 10387 10389 10389 10385 10382 10379 10377 10375 10374 10373 10372 10376 10382 10381 10383 10391 10387 10375 10376 10382 10383 10385 10387 10387 10389 10390 10391 10391 10391 10392 10392 10393 10392 10392 10392 10392 10393 10394 10395 10397 10398 10399 10400 10402 10403 10403 10403 10403 10404 10404 10405 10404 10405 10406 10406 10407 10408 10409 10409 10410 10411 10413 10414 10417 10420 10422 10423 10426 10430 10435 10439 10439 10437 10436 10436 10438
10377 10378 10379 10379 10382 10385 10379 10375 10377 10377 10378 10383 10383 10376 10369 10368 10367 10365 10364 10363 10363 10365 10367 10368 10374 10379 10372 10364 10367 10371 10371 10372 10373 10374 10376 10378 10378 10378 10379 10381 10382 10383 10383 10383 10383 10383 10383 10384 10385 10386 10387 10388 10389 10390 10391 10392 10393 10393 10394 10395 10396 10397 10397 10398 10399 10399 10399 10399 10398 10399 10399 10401 10403 10404 10407 10410 10412 10413 10417 10422 10426 10428 10429 10428 10426 10426
10366 10368 10370 10369 10373 10377 10371 10367 10367 10366 10371 10379 10374 10362 10357 10357 10358 10358 10357 10357 10354 10352 10353 10356 10360 10361 10357 10356 10358 10359 10359 10360 10359 10360 10363 10364 10365 10366 10368 10370 10371 10372 10373 10373 10373 10373 10373 10373 10374 10375 10376 10377 10378 10379 10380 10382 10383 10383 10383 10385 10386 10387 10388 10389 10390 10391 10391 10390 10389 10389 10388 10389 10391 10392 10394 10398 10401 10402 10404 10408 10412 10416 10418 10418 10416 10417
10355 10357 10358 10358 10362 10365 10362 10358 10357 10360 10366 10367 10358 10351 10351 10350 10348 10348 10348 10347 10344 10341 10342 10344 10344 10343 10344 10346 10346 10346 10348 10348 10347 10349 10351 10351 10352 10354 10356 10358 10359 10360 10361 10362 10362 10362 10362 10363 10364 10365 10366 10366 10367 10369 10369 10371 10372 10373 10374 10374 10375 10376 10377 10377 10379 10380 10381 10381 10380 10380 10379 10379 10379 10380 10382 10385 10389 10390 10392 10394 10399 10404 10406 10407 10408 10408
10346 10345 10345 10346 10348 10351 10352 10349 10350 10355 10357 10351 10346 10346 10345 10341 10337 10337 10337 10335 10333 10332 10332 10332 10330 10329 10330 10331 10332 10334 10336 10336 10337 10338 10338 10338 10341 10342 10344 10345 10347 10348 10349 10349 10350 10351 10351 10352 10353 10353 10354 10355 10356 10357 10358 10359 10361 10363 10364 10364 10364 10365 10365 10366 10368 10369 10370 10370 10370 10370 10370 10369 10369 10369 10371 10374 10376 10378 10379 10382 10387 10391 10394 10395 10397 10399
10338 10335 10334 10334 10334 10336 10339 10338 10340 10346 10345 10339 10337 10337 10334 10330 10328 10327 10326 10324 10322 10322 10322 10320 10318 10318 10318 10318 10318 10321 10323 10324 10325 10324 10324 10326 10328 10330 10331 10332 10334 10336 10336 10336 10337 10338 10339 10339 10340 10341 10342 10342 10344 10345 10346 10346 10348 10351 10353 10353 10353 10354 10354 10355 10357 10358 10359 10360 10360 10359 10359 10359 10359 10360 10361 10363 10364 10366 10369 10372 10374 10378 10382 10384 10385 10386
10329 10326 10325 10324 10323 10324 10325 10326 10328 10332 10333 10330 10327 10324 10323 10321 10318 10317 10315 10313 10312 10312 10311 10310 10309 10307 10307 10306 10307 10308 10309 10310 10310 10309 10310 10313 10315 10316 10318 10319 10321 10323 10323 10324 10325 10326 10326 10327 10328 10330 10330 10331 10331 10332 10334 10335 10337 10340 10342 10342 10342 10342 10342 10344 10345 10346 10347 10349 10350 10350 10349 10349 10349 10350 10351 10353 10354 10356 10359 10361 10363 10365 10369 10371 10372 10373
10319 10317 10316 10315 10315 10314 10313 10314 10316 10318 10319 10318 10314 10311 10311 10308 10305 10305 10305 10303 10303 10302 10300 10299 10298 10297 10296 10296 10296 10296 10297 10297 10296 10294 10296 10300 10302 10303 10304 10306 10308 10310 10310 10312 10313 10315 10316 10317 10318 10320 10320 10321 10321 10320 10322 10324 10326 10329 10331 10331 10330 10330 10331 10332 10332 10333 10335 10337 10339 10340 10340 10340 10340 10341 10342 10343 10345 10346 10349 10351 10352 10354 10355 10358 10360 10361
10309 10308 10307 10305 10305 10304 10303 10303 10305 10305 10305 10305 10302 10298 10296 10294 10293 10292 10293 10294 10295 10291 10288 10287 10286 10286 10286 10286 10286 10287 10286 10287 10285 10280 10281 10286 10289 10290 10292 10293 10295 10297 10298 10300 10302 10303 10305 10306 10308 10310 10310 10310 10310 10310 10311 10314 10316 10318 10319 10319 10318 10318 10319 10319 10320 10322 10326 10328 10328 10329 10330 10331 10332 10333 10335 10335 10336 10337 10339 10340 10341 10342 10343 10345 10348 10350
10299 10298 10298 10297 10296 10295 10294 10294 10295 10293 10292 10292 10290 10286 10283 10281 10280 10279 10280 10283 10283 10280 10279 10278 10275 10275 10275 10274 10275 10277 10276 10276 10275 10270 10269 10272 10275 10278 10281 10282 10283 10284 10286 10287 10289 10291 10293 10295 10297 10299 10299 10299 10299 10299 10301 10304 10306 10308 10308 10307 10307 10307 10307 10307 10309 10313 10317 10318 10318 10318 10319 10321 10322 10324 10327 10328 10327 10328 10329 10330 10330 10331 10333 10334 10335 10337
10286 10287 10287 10286 10286 10285 10284 10285 10285 10283 10281 10279 10277 10275 10272 10270 10269 10268 10269 10270 10270 10269 10270 10269 10266 10264 10263 10262 10264 10265 10265 10265 10265 10263 10260 10261 10263 10266 10268 10270 10272 10273 10274 10275 10277 10279 10282 10284 10286 10287 10287 10287 10288 10290 10293 10295 10297 10298 10297 10296 10297 10297 10296 10298 10301 10305 10307 10308 10308 10309 10310 10311 10312 10314 10317 10318 10318 10319 10320 10321 10321 10321 10322 10322 10322 10324
10270 10272 10273 10273 10273 10273 10272 10273 10273 10271 10269 10266 10265 10264 10263 10261 10260 10260 10259 10258 10257 10257 10257 10257 10256 10254 10252 10252 10253 10254 10254 10254 10254 10254 10252 10252 10253 10255 10256 10258 10261 10263 10263 10265 10266 10267 10271 10274 10275 10276 10277 10277 10279 10281 10283 10285 10288 10288 10286 10286 10287 10287 10287 10289 10293 10296 10297 10298 10299 10300 10301 10302 10303 10304 10306 10308 10309 10310 10311 10312 10313 10313 10313 10313 10312 10315
10258 10258 10259 10259 10259 10260 10260 10260 10260 10259 10257 10255 10255 10255 10254 10252 10251 10251 10249 10247 10247 10246 10244 10244 10244 10242 10242 10243 10244 10245 10246 10245 10243 10243 10243 10244 10245 10245 10245 10247 10250 10251 10253 10254 10256 10257 10260 10263 10265 10265 10266 10267 10269 10272 10273 10274 10277 10277 10275 10276 10277 10277 10279 10282 10285 10287 10288 10289 10290 10290 10292 10293 10294 10295 10297 10298 10300 10301 10301 10301 10302 10303 10304 10304 10305 10305
10249 10247 10247 10245 10245 10247 10250 10249 10248 10247 10245 10245 10245 10245 10244 10242 10240 10240 10239 10237 10236 10235 10233 10232 10232 10232 10234 10235 10235 10235 10236 10235 10234 10234 10234 10236 10237 10237 10237 10238 10238 10240 10242 10244 10246 10247 10250 10253 10254 10254 10255 10257 10259 10262 10262 10263 10265 10265 10265 10267 10267 10268 10271 10275 10278 10279 10279 10279 10280 10281 10283 10285 10286 10288 10289 10289 10290 10292 10291 10291 10292 10294 10295 10295 10296 10296
10240 10237 10236 10234 10233 10236 10239 10239 10236 10234 10235 10235 10235 10233 10231 10230 10229 10229 10228 10228 10226 10225 10224 10223 10223 10223 10223 10226 10228 10228 10227 10226 10225 10225 10226 10226 10227 10228 10229 10230 10230 10231 10233 10234 10235 10237 10240 10243 10244 10244 10245 10246 10248 10251 10252 10252 10253 10255 10256 10257 10258 10260 10264 10267 10269 10268 10268 10269 10270 10271 10273 10276 10278 10278 10279 10279 10281 10282 10282 10282 10284 10285 10285 10285 10286 10286
10230 10227 10226 10227 10227 10227 10229 10228 10224 10222 10222 10222 10222 10222 10220 10219 10218 10218 10219 10219 10218 10216 10214 10214 10215 10214 10214 10216 10219 10220 10219 10218 10217 10217 10216 10216 10217 10218 10219 10221 10222 10223 10224 10225 10225 10227 10230 10233 10235 10235 10235 10237 10240 10242 10241 10241 10243 10246 10248 10250 10251 10253 10256 10258 10258 10258 10258 10259 10261 10263 10264 10266 10267 10267 10268 10269 10270 10272 10273 10274 10274 10275 10275 10275 10277 10278
10219 10218 10218 10219 10220 10220 10220 10217 10212 10210 10210 10209 10209 10210 10210 10209 10208 10208 10209 10210 10209 10207 10205 10204 10205 10207 10208 10208 10209 10210 10210 10209 10209 10208 10207 10207 10208 10208 10208 10211 10213 10214 10215 10217 10217 10218 10222 10224 10225 10226 10228 10230 10232 10233 10231 10232 10235 10238 10241 10243 10244 10245 10247 10249 10249 10249 10250 10252 10254 10254 10255 10256 10256 10257 10258 10260 10261 10263 10264 10264 10265 10266 10267 10268 10268 10270
10212 10211 10210 10210 10212 10212 10211 10206 10201 10200 10200 10198 10197 10197 10196 10197 10199 10200 10200 10200 10199 10198 10197 10196 10197 10199 10199 10198 10198 10198 10200 10200 10199 10199 10199 10199 10200 10199 10199 10201 10203 10204 10206 10208 10209 10211 10214 10216 10217 10218 10221 10223 10224 10223 10222 10224 10228 10231 10234 10234 10235 10237 10239 10240 10241 10242 10244 10245 10245 10245 10246 10247 10248 10249 10250 10251 10252 10253 10253 10254 10256 10257 10258 10259 10261 10262
10205 10204 10203 10203 10204 10202 10200 10196 10193 10194 10194 10189 10185 10184 10185 10186 10189 10190 10190 10189 10189 10189 10189 10189 10190 10190 10190 10189 10188 10188 10190 10190 10188 10189 10191 10192 10191 10190 10191 10192 10194 10196 10198 10199 10200 10203 10205 10206 10207 10210 10212 10213 10213 10214 10215 10217 10220 10223 10224 10225 10226 10229 10231 10232 10233 10234 10236 10236 10235 10236 10238 10239 10240 10241 10241 10242 10243 10243 10244 10246 10247 10249 10250 10251 10253 10255
10195 10196 10196 10196 10195 10192 10188 10185 10184 10188 10188 10180 10172 10173 10175 10176 10177 10179 10179 10179 10180 10181 10181 10181 10181 10180 10180 10180 10178 10178 10180 10181 10180 10180 10183 10183 10182 10181 10182 10184 10186 10188 10189 10190 10192 10194 10196 10197 10199 10201 10202 10202 10204 10205 10207 10208 10210 10213 10215 10216 10218 10220 10222 10223 10224 10225 10226 10227 10227 10229 10230 10231 10232 10232 10232 10233 10234 10235 10237 10238 10240 10241 10242 10244 10245 10246
10187 10187 10186 10186 10185 10183 10179 10175 10175 10179 10180 10172 10163 10162 10165 10165 10167 10170 10170 10169 10169 10170 10170 10171 10172 10170 10169 10169 10169 10170 10172 10172 10171 10171 10173 10173 10172 10172 10174 10177 10179 10180 10181 10182 10184 10186 10187 10189 10190 10191 10192 10194 10196 10197 10198 10199 10202 10204 10205 10208 10210 10211 10213 10215 10215 10216 10218 10219 10220 10221 10222 10223 10223 10223 10224 10225 10227 10229 10230 10232 10233 10234 10236 10237 10238 10240